Torna al catalogo

SITRO-AIS-43

AttivoComunicazioniPO
NORAD 61755·PAYLOAD·🇷🇺 Russia
Questo nome del satellite non è ancora stato confermato da fonti ufficiali.

Lanciato Nov 4, 2024 da Vostochny Cosmodrome

Loading…

Prossimi Passaggi (prossime 24 ore)

TLE

AggiornatoSource: Space-Track

Epoca: Sep 14, 2026, 21:52 UTC

1 61755U 24199W   26257.91138440  .00419114  72738-4  10477-2 0  9993
2 61755  97.2641 142.1123 0003452 154.3219 205.8230 15.95743687151954

Traccia SITRO-AIS-43 in tempo reale con AllMySat

Download on the App Store